RH
77 81 81 77 80 80 77 75 74 76 73 72 73 78 84 90 91 86 85 63 65 66
77 79 75 75 71 73 75 68 67 71 75 73 71 72 76 86 90 91 84 71 66 67
73 70 74 70 72 71 70 71 70 70 70 72 71 72 75 82 82 84 87 85 78 70
72 70 69 73 73 73 75 74 74 70 66 68 70 70 76 77 80 86 90 84 83 81
72 70 72 72 70 70 74 76 73 66 66 66 69 71 72 75 75 82 86 86 86 85
78 78 77 72 71 71 74 76 73 67 69 68 69 72 71 72 73 77 82 87 85 84
82 79 78 74 73 72 71 74 71 70 68 68 68 69 72 71 73 74 75 85 85 85
82 80 78 77 75 74 74 70 70 70 70 70 66 63 73 76 77 77 77 75 91 88
85 83 81 78 78 77 79 72 71 71 72 74 66 72 74 76 78 75 77 74 88 85
87 88 85 80 81 83 81 83 81 78 77 80 74 73 76 78 72 77 78 78 76 91
91 90 86 86 85 86 87 85 84 86 82 80 69 73 76 80 75 75 75 79 80 85
92 92 90 90 90 91 92 88 84 82 90 89 79 74 74 77 75 80 77 75 77 89
93 94 93 92 94 94 93 92 85 90 90 93 87 86 77 76 73 83 77 80 79 82
93 94 94 94 93 95 94 92 89 92 93 88 93 95 90 85 76 80 81 79 80 76
Wind_Speed
13 9 11 12 12 11 11 12 16 15 15 16 15 13 13 11 12 16 15 19 15 12
14 14 14 17 16 13 14 13 15 17 17 17 16 16 15 10 14 15 15 17 16 14
15 16 15 16 18 19 17 16 16 17 18 17 17 16 16 13 14 16 14 14 18 16
15 16 16 15 16 17 17 16 18 17 19 19 17 16 15 16 15 17 19 17 18 19
16 17 17 16 18 19 19 18 18 19 20 20 19 17 18 19 17 18 19 21 19 20
16 16 16 18 18 18 19 19 20 19 20 20 20 18 19 19 20 19 18 22 22 21
18 17 17 18 19 19 19 18 20 20 20 21 20 21 21 20 20 21 19 21 21 21
19 18 18 18 18 18 19 18 20 21 22 21 21 18 20 20 21 22 21 20 20 22
19 19 19 19 19 19 18 20 20 21 21 22 18 31 34 30 21 21 22 22 21 22
18 19 19 20 20 19 19 18 19 20 20 22 23 35 36 36 23 21 22 21 18 19
18 19 19 20 19 19 17 18 18 19 20 21 21 36 37 37 26 23 25 24 20 21
19 19 19 19 19 18 17 18 18 19 20 20 21 34 37 32 24 22 27 24 24 17
19 18 19 18 18 16 17 18 17 19 17 23 22 31 35 31 18 21 20 24 26 29
19 19 18 17 16 16 17 18 19 19 16 18 17 18 32 34 22 18 18 21 18 18
Wind_Direction
312 307 304 301 302 296 297 300 302 301 299 301 303 301 302 287 283 207 216 213 203 204
311 308 303 301 299 296 293 292 296 297 293 291 289 286 286 288 276 254 214 213 202 203
309 306 299 300 297 294 291 290 290 291 289 285 286 288 285 277 271 292 221 208 211 204
308 305 300 295 293 290 290 288 286 283 285 283 280 280 276 272 278 264 256 208 208 209
304 305 300 296 293 292 288 287 283 283 280 278 276 272 270 272 268 261 276 210 207 205
305 302 299 298 294 290 286 285 281 280 277 274 271 269 264 262 262 263 256 237 204 202
308 304 300 298 294 292 288 280 280 278 274 270 267 263 262 260 261 261 253 261 209 201
306 303 300 297 294 291 287 283 279 277 274 269 263 258 254 254 255 260 260 251 219 202
304 304 302 300 297 293 288 288 283 277 271 267 260 258 254 251 250 253 249 246 238 206
305 305 305 303 301 298 296 291 284 278 269 262 260 258 254 250 248 245 250 252 230 222
310 306 304 304 302 301 301 296 291 280 272 262 261 258 251 247 246 246 245 251 235 211
310 306 306 305 307 306 304 303 297 289 277 267 262 256 251 244 241 239 243 239 234 232
309 308 306 308 309 307 306 304 306 299 286 280 271 253 247 238 234 230 235 230 230 212
312 312 311 311 313 312 313 312 309 312 301 296 283 267 250 234 229 232 227 230 213 209